STARLINK-11457, 62919

Orbit data source: Space-Track

STARLINK-11457, 62919 is a payload satellite owned by SpaceX/Seattle (US) in LEO that was launched on Sat, 08 Feb 2025 UTC via an FALCON 9 launch vehicle from the Air Force Eastern Test Range (AFETR). Payload-class satellites include a variety of spacecraft equipped with specific instruments for various scientific and technological missions. These include communications satellites like Starlink; space stations such as the ISS; scientific satellites like the Hubble; Earth observation satellites from companies like Planet Labs, Umbra, and HawkEye 360; GPS; miniature CubeSats for education and research; and military/defense satellites.

Loading next visibility...
Identifier
62919, 2025-027N
Orbit
LEO
Last TLE update
2 hours ago
Origin
Manufacturer
SpaceX/Seattle
Mission
Operational Commercial Communications
Bus & Motor
STARLINK V2M, Unknown motor
Mass
730 kg wet, ~700 kg dry
Launch date (UTC)
2025-02-08 (5 months ago)
Launch vehicle
FALCON 9
Launch site
Air Force Eastern Test Range (AFETR)
Object type
Payload
Rocket body
Debris
Shape & HBR
Box + 2 Pan, 29 m
Radar Cross Section
36.964 m², Large (>1 m²)

Expand to show TLE details & history

TLE from 2 hours ago
0 STARLINK-11457
1 62919U 25027N   25190.21547489  .00175894  00000-0  13435-2 0  9992
2 62919  42.9998  14.9143 0002158 280.7894  79.2731 15.70874154 24845
Epoch: 2025-07-09T05:10Z
TLE epoch observation values (Epoch: 2025-07-09T05:10:17.03Z)
Latitude
Longitude
9.94404°
Altitude
355.898 km
Speed
7.698 km/s
True Right ascension
00h 59m 39s
True Declination
0° 00' 00"
Sunlit
Object was in daylight at epoch
Visualization orbit readout
Latitude
8.29425°
Longitude
-179.56127°
Altitude
355.961 km
Speed
7.698 km/s
Apparent Right ascension
10h 23m 05s
Apparent Declination
-18° 15' 05"
Sunlit
Object is in daylight
Visualization observer readout
Local Sidereal Time
19:33:59
Azimuth
288.252° WNW
Elevation
-47.725°
Doppler factor
1
Orbital elements
Apogee altitude
359.833 km
Perigee altitude
356.925 km
Semi-major axis
6,736.516 km
Eccentricity
0.00022
Inclination
42.9998°
RAAN
14.9143°
Arg. of periapsis
280.7894°
True anomaly
Unknown
Mean anomaly
79.2731°
Eccentric anomaly
Unknown
Mean motion
3.92546 °/min
Orbital period
91.71 mins
BSTAR
0.0013435
Loading maneuver chart data...
Loading SW <> Apogee altitude chart data...
Loading historical data...
Loading historical data...
Loading historical data...
Loading historical data...
Loading historical data...
Loading historical data...
Loading historical data...

STARLINK-11457 Visibility forecast

Observer location: undefined°, undefined°

Span
Click to sort rows by Start time (UTC) header in descending order
Start Az.
Max El. time (UTC)
Max El. Az.
Max El.
End time (UTC)
End Az.
5 mins2025-07-09 16:04:29.964Z224.887° SW2025-07-09 16:06:29.964Z180.369° SSW32.739°2025-07-09 16:09:29.964Z82.065° E
4 mins2025-07-09 17:41:29.964Z283.104° WNW2025-07-09 17:42:29.964Z312.413° NW35.062°2025-07-09 17:45:29.964Z67.019° ENE
4 mins2025-07-09 19:17:29.964Z298.27° NW2025-07-09 19:19:29.964Z22.275° NNE36.726°2025-07-09 19:21:29.964Z81.08° E
|